This is the latest recevied weather packets stored in our database for station/object SALIDA. If no packets are shown the sender has not sent any weather packets the latest 10 day(s).
| Time | Temp. | Humidity | Pressure | Rain* | Wind** | Luminosity | Snow |
|---|---|---|---|---|---|---|---|
| 1788147731 | 59° F | 74% | 757.1 mmHg | 0 in | - | - | - |
| 1788146831 | 60° F | 74% | 756.7 mmHg | 0 in | - | - | - |
| 1788145931 | 60° F | 74% | 756.5 mmHg | 0 in | - | - | - |
| 1788145031 | 60° F | 72% | 756.1 mmHg | 0 in | - | - | - |
| 1788144131 | 61° F | 69% | 756.5 mmHg | 0 in | - | - | - |
| 1788143231 | 61° F | 76% | 756.5 mmHg | 0 in | - | - | - |
| 1788142331 | 62° F | 78% | 756.1 mmHg | 0 in | - | - | - |
| 1788141431 | 62° F | 75% | 755.4 mmHg | 0 in | - | - | - |
| 1788140531 | 62° F | 76% | 754.6 mmHg | 0.01 in | - | - | - |
| 1788139632 | 63° F | 76% | 754.5 mmHg | 0.01 in | - | - | - |
| 1788138732 | 63° F | 70% | 754.6 mmHg | 0.01 in | - | - | - |
| 1788137832 | 64° F | 68% | 754.9 mmHg | 0.01 in | - | - | - |
| 1788136932 | 67° F | 62% | 754.6 mmHg | 0 in | - | - | - |
| 1788136032 | 69° F | 54% | 754.2 mmHg | 0 in | - | - | - |
| 1788135132 | 70° F | 51% | 754 mmHg | 0 in | - | - | - |
| 1788134232 | 72° F | 43% | 753.9 mmHg | 0 in | - | - | - |
| 1788133332 | 73° F | 43% | 753.2 mmHg | 0 in | - | - | - |
| 1788132432 | 74° F | 41% | 753.2 mmHg | 0 in | - | - | - |
| 1788131532 | 75° F | 40% | 753 mmHg | 0 in | - | - | - |
| 1788130632 | 76° F | 37% | 753.1 mmHg | 0 in | - | - | - |
| 1788129732 | 76° F | 36% | 753.2 mmHg | 0 in | - | - | - |
| 1788128832 | 77° F | 36% | 753.4 mmHg | 0 in | - | - | - |
| 1788127932 | 77° F | 37% | 753.4 mmHg | 0 in | - | - | - |
| 1788127032 | 75° F | 41% | 753.4 mmHg | 0 in | - | - | - |
| 1788126132 | 75° F | 43% | 753.7 mmHg | 0 in | - | - | - |
* Rain latest hour (hover to see other rain measurements)
** Current wind speed in m/s (hover to see current wind gust speed)